CW9133 Weather Reports


Display with metric or nautical units.
time (UTC)temp
F
wind
direction
speed
MPH
gust
MPH
rain 1hr
in
rain 24hr
in
rain mn
in
humidity
%
barometer
mb
20180526015804 76 274 1.0 2.0 0.00 0.00 0.00 69 1008.0
20180526015304 76 274 0.0 1.0 0.00 0.00 0.00 68 1007.8
20180526014804 76 274 0.0 2.0 0.00 0.00 0.00 68 1007.8
20180526014304 76 274 0.0 0.0 0.00 0.00 0.00 68 1007.7
20180526013804 76 274 0.0 0.0 0.00 0.00 0.00 68 1007.7
20180526013305 77 274 0.0 0.0 0.00 0.00 0.00 68 1007.6
20180526012804 77 274 0.0 1.0 0.00 0.00 0.00 68 1007.7
20180526012304 77 274 0.0 0.0 0.00 0.00 0.00 67 1007.7
20180526011804 77 274 0.0 1.0 0.00 0.00 0.00 66 1007.6
20180526011305 77 274 1.0 1.0 0.00 0.00 0.00 67 1007.5
20180526010805 77 274 0.0 1.0 0.00 0.00 0.00 66 1007.7
20180526010305 78 274 1.0 2.0 0.00 0.00 0.00 66 1007.7
20180526005804 78 274 1.0 2.0 0.00 0.00 0.00 66 1007.8
20180526005304 78 274 1.0 1.0 0.00 0.00 0.00 66 1007.8
20180526004804 78 274 1.0 3.0 0.00 0.00 0.00 66 1007.9
20180526004304 78 274 2.0 3.0 0.00 0.00 0.00 66 1008.0
20180526003804 78 271 1.0 3.0 0.00 0.00 0.00 66 1008.0
20180526003301 78 279 1.0 3.0 0.00 0.00 0.00 66 1008.0
20180526002801 78 279 2.0 3.0 0.00 0.00 0.00 65 1008.0
20180526002301 78 279 2.0 3.0 0.00 0.00 0.00 65 1007.9
20180526001801 78 276 2.0 3.0 0.00 0.00 0.00 65 1008.0
20180526001301 78 276 3.0 3.0 0.00 0.00 0.00 65 1008.0
20180526000801 78 266 2.0 3.0 0.00 0.00 0.00 64 1008.0
20180526000301 78 279 2.0 3.0 0.00 0.00 0.00 63 1008.1
20180525235801 78 278 2.0 5.0 0.00 0.00 0.00 63 1008.2
20180525235301 78 201 3.0 6.0 0.00 0.00 0.00 62 1008.3
20180525234801 79 220 2.0 5.0 0.00 0.00 0.00 62 1008.3
20180525234301 79 231 3.0 7.0 0.00 0.00 0.00 61 1008.3
20180525233801 79 240 2.0 7.0 0.00 0.00 0.00 60 1008.3
20180525233301 79 241 4.0 9.0 0.00 0.00 0.00 58 1008.3
20180525232800 80 212 2.0 5.0 0.00 0.00 0.00 58 1008.1
20180525232301 80 276 2.0 3.0 0.00 0.00 0.00 57 1008.1
20180525231801 80 271 2.0 6.0 0.00 0.00 0.00 57 1007.9
20180525231301 80 275 3.0 5.0 0.00 0.00 0.00 58 1008.0
20180525230801 80 282 2.0 6.0 0.00 0.00 0.00 59 1008.1
20180525230301 80 209 5.0 8.0 0.00 0.00 0.00 58 1008.1
20180525225801 81 283 3.0 7.0 0.00 0.00 0.00 58 1008.0
20180525225301 81 224 4.0 6.0 0.00 0.00 0.00 59 1008.2
20180525224800 81 288 3.0 6.0 0.00 0.00 0.00 58 1008.0
20180525224301 81 287 3.0 8.0 0.00 0.00 0.00 56 1007.9
20180525223801 82 289 4.0 7.0 0.00 0.00 0.00 55 1007.9
20180525223301 83 281 3.0 5.0 0.00 0.00 0.00 54 1008.0
20180525222801 83 298 3.0 8.0 0.00 0.00 0.00 53 1008.1
20180525222301 84 288 4.0 9.0 0.00 0.00 0.00 51 1008.2
20180525221801 86 271 5.0 12.0 0.00 0.00 0.00 47 1008.3
20180525221301 87 271 6.0 10.0 0.00 0.00 0.00 44 1008.4
20180525220801 87 209 2.0 3.0 0.00 0.00 0.00 39 1008.2
20180525220300 87 200 2.0 3.0 0.00 0.00 0.00 39 1008.2
20180525215801 87 173 2.0 3.0 0.00 0.00 0.00 39 1008.3
20180525215301 87 213 3.0 5.0 0.00 0.00 0.00 38 1008.4
20180525214801 88 204 2.0 3.0 0.00 0.00 0.00 39 1008.5
20180525214301 88 186 2.0 3.0 0.00 0.00 0.00 40 1008.6
20180525213801 88 221 2.0 3.0 0.00 0.00 0.00 40 1008.6
20180525213301 88 206 2.0 3.0 0.00 0.00 0.00 39 1008.6
20180525212801 88 198 0.0 3.0 0.00 0.00 0.00 41 1008.7
20180525212300 88 202 2.0 5.0 0.00 0.00 0.00 38 1008.7
20180525211801 88 212 3.0 5.0 0.00 0.00 0.00 37 1008.7
20180525211301 89 166 2.0 3.0 0.00 0.00 0.00 41 1008.7
20180525210801 89 210 3.0 5.0 0.00 0.00 0.00 37 1008.7
20180525210301 89 234 2.0 3.0 0.00 0.00 0.00 38 1008.7
20180525205801 89 124 3.0 5.0 0.00 0.00 0.00 39 1008.7
20180525205301 89 212 4.0 7.0 0.00 0.00 0.00 37 1008.8
20180525204801 89 188 2.0 8.0 0.00 0.00 0.00 38 1008.8
20180525204301 89 196 2.0 5.0 0.00 0.00 0.00 36 1008.9
20180525203801 89 194 5.0 9.0 0.00 0.00 0.00 37 1009.0
20180525203301 89 168 2.0 7.0 0.00 0.00 0.00 38 1009.0
20180525202801 89 218 2.0 5.0 0.00 0.00 0.00 38 1009.1
20180525202300 89 224 3.0 6.0 0.00 0.00 0.00 36 1009.3
20180525201801 89 151 2.0 3.0 0.00 0.00 0.00 38 1009.4
20180525201301 89 131 2.0 8.0 0.00 0.00 0.00 38 1009.4
20180525200801 89 176 2.0 9.0 0.00 0.00 0.00 36 1009.6
20180525200301 89 223 2.0 6.0 0.00 0.00 0.00 35 1009.7
20180525195802 89 210 3.0 12.0 0.00 0.00 0.00 36 1009.8
20180525195300 89 208 3.0 8.0 0.00 0.00 0.00 37 1009.8
20180525194801 89 220 3.0 5.0 0.00 0.00 0.00 37 1009.9
20180525194301 89 213 3.0 6.0 0.00 0.00 0.00 36 1010.0
20180525193801 89 228 4.0 7.0 0.00 0.00 0.00 36 1010.1
20180525193302 89 221 3.0 9.0 0.00 0.00 0.00 36 1010.1
20180525192801 89 211 5.0 12.0 0.00 0.00 0.00 36 1010.3
20180525192301 89 161 3.0 8.0 0.00 0.00 0.00 39 1010.3
20180525191801 89 171 5.0 12.0 0.00 0.00 0.00 37 1010.5
20180525191301 89 189 2.0 5.0 0.00 0.00 0.00 38 1010.5
20180525190801 89 227 2.0 5.0 0.00 0.00 0.00 38 1010.6
20180525190301 88 207 4.0 8.0 0.00 0.00 0.00 39 1010.6
20180525185801 88 233 1.0 6.0 0.00 0.00 0.00 41 1010.7
20180525185301 88 192 5.0 10.0 0.00 0.00 0.00 37 1010.8
20180525184801 88 241 3.0 9.0 0.00 0.00 0.00 38 1010.9
20180525184301 88 206 3.0 5.0 0.00 0.00 0.00 41 1010.9
20180525183801 88 221 4.0 9.0 0.00 0.00 0.00 39 1011.1
20180525183301 88 199 6.0 12.0 0.00 0.00 0.00 38 1011.2
20180525182801 88 201 6.0 9.0 0.00 0.00 0.00 39 1011.2
20180525182303 88 202 5.0 8.0 0.00 0.00 0.00 40 1011.3
20180525181803 88 260 3.0 3.0 0.00 0.00 0.00 40 1011.4
20180525181301 88 229 4.0 10.0 0.00 0.00 0.00 41 1011.4
20180525180801 88 159 3.0 12.0 0.00 0.00 0.00 43 1011.5
20180525180301 88 182 2.0 8.0 0.00 0.00 0.00 42 1011.6
20180525175802 87 167 3.0 6.0 0.00 0.00 0.00 45 1011.7
20180525175301 87 218 3.0 6.0 0.00 0.00 0.00 40 1011.7
20180525174802 87 230 2.0 9.0 0.00 0.00 0.00 41 1011.9
20180525174303 87 234 3.0 12.0 0.00 0.00 0.00 41 1011.9
20180525173805 87 223 3.0 12.0 0.00 0.00 0.00 41 1012.0
20180525173303 87 172 5.0 12.0 0.00 0.00 0.00 41 1012.1
20180525172803 87 218 5.0 12.0 0.00 0.00 0.00 42 1012.2
20180525172301 87 219 3.0 6.0 0.00 0.00 0.00 45 1012.3
20180525171801 87 275 2.0 9.0 0.00 0.00 0.00 43 1012.5
20180525171301 87 202 3.0 8.0 0.00 0.00 0.00 43 1012.6
20180525170802 87 226 2.0 10.0 0.00 0.00 0.00 42 1012.6
20180525170301 87 219 4.0 8.0 0.00 0.00 0.00 42 1012.6
20180525165801 87 200 6.0 12.0 0.00 0.00 0.00 42 1012.7
20180525165302 87 217 3.0 7.0 0.00 0.00 0.00 43 1012.6
20180525164801 87 211 4.0 13.0 0.00 0.00 0.00 44 1012.7
20180525164301 87 176 3.0 7.0 0.00 0.00 0.00 44 1012.7
20180525163801 87 184 5.0 8.0 0.00 0.00 0.00 44 1012.8
20180525163301 86 188 3.0 5.0 0.00 0.00 0.00 45 1012.9
20180525162801 86 208 5.0 8.0 0.00 0.00 0.00 44 1013.0
20180525162301 86 175 3.0 10.0 0.00 0.00 0.00 45 1013.0
20180525161801 86 197 4.0 8.0 0.00 0.00 0.00 46 1013.0
20180525161301 85 243 2.0 3.0 0.00 0.00 0.00 47 1013.0
20180525160802 85 232 2.0 5.0 0.00 0.00 0.00 47 1013.0
20180525160301 85 220 4.0 12.0 0.00 0.00 0.00 46 1013.1
20180525155802 85 256 3.0 12.0 0.00 0.00 0.00 46 1013.1
20180525155301 84 198 3.0 8.0 0.00 0.00 0.00 47 1013.1
20180525154801 84 195 2.0 8.0 0.00 0.00 0.00 47 1013.2
20180525154301 84 206 5.0 9.0 0.00 0.00 0.00 46 1013.2
20180525153802 84 204 3.0 9.0 0.00 0.00 0.00 48 1013.1
20180525153302 84 209 2.0 10.0 0.00 0.00 0.00 46 1013.2
20180525152802 84 218 5.0 12.0 0.00 0.00 0.00 46 1013.1
20180525152302 84 204 5.0 7.0 0.00 0.00 0.00 46 1013.3
20180525151801 83 204 3.0 8.0 0.00 0.00 0.00 48 1013.2
20180525151302 83 204 2.0 6.0 0.00 0.00 0.00 47 1013.2
20180525150801 83 208 3.0 8.0 0.00 0.00 0.00 48 1013.3
20180525150301 82 212 1.0 3.0 0.00 0.00 0.00 50 1013.3
20180525145801 82 185 2.0 5.0 0.00 0.00 0.00 48 1013.4
20180525145301 82 217 3.0 6.0 0.00 0.00 0.00 49 1013.5
20180525144802 81 164 2.0 5.0 0.00 0.00 0.00 52 1013.5
20180525144301 81 184 3.0 3.0 0.00 0.00 0.00 53 1013.5
20180525143801 80 197 2.0 3.0 0.00 0.00 0.00 51 1013.6
20180525143301 80 212 3.0 5.0 0.00 0.00 0.00 51 1013.7
20180525142801 80 199 4.0 9.0 0.00 0.00 0.00 51 1013.8
20180525142301 79 178 2.0 3.0 0.00 0.00 0.00 53 1013.9
20180525141801 79 188 4.0 8.0 0.00 0.00 0.00 52 1014.0
20180525141301 78 222 2.0 5.0 0.00 0.00 0.00 53 1014.0
20180525140801 78 219 4.0 6.0 0.00 0.00 0.00 53 1014.0
20180525140301 78 201 4.0 9.0 0.00 0.00 0.00 53 1014.0
20180525135801 78 208 4.0 8.0 0.00 0.00 0.00 53 1014.0
20180525135302 77 184 3.0 5.0 0.00 0.00 0.00 55 1014.1
20180525134802 77 213 3.0 6.0 0.00 0.00 0.00 55 1014.0
20180525134302 77 215 3.0 6.0 0.00 0.00 0.00 54 1014.1
20180525133802 76 173 3.0 6.0 0.00 0.00 0.00 56 1014.0
20180525133302 76 181 2.0 3.0 0.00 0.00 0.00 57 1014.1
20180525132802 76 173 3.0 9.0 0.00 0.00 0.00 56 1014.2
20180525132302 75 164 3.0 8.0 0.00 0.00 0.00 56 1014.2
20180525131801 75 206 4.0 6.0 0.00 0.00 0.00 57 1014.2
20180525131301 75 178 2.0 5.0 0.00 0.00 0.00 57 1014.2
20180525130802 74 194 2.0 5.0 0.00 0.00 0.00 58 1014.2
20180525130301 74 153 2.0 3.0 0.00 0.00 0.00 58 1014.3
20180525125801 73 217 3.0 5.0 0.00 0.00 0.00 59 1014.3
20180525125301 73 208 2.0 6.0 0.00 0.00 0.00 60 1014.3
20180525124801 72 167 2.0 5.0 0.00 0.00 0.00 61 1014.2
20180525124302 72 216 3.0 7.0 0.00 0.00 0.00 61 1014.3
20180525123801 71 162 2.0 5.0 0.00 0.00 0.00 65 1014.2
20180525123301 70 175 3.0 8.0 0.00 0.00 0.00 64 1014.2
20180525122802 70 172 2.0 5.0 0.00 0.00 0.00 68 1014.1
20180525122302 70 173 2.0 6.0 0.00 0.00 0.00 67 1014.2
20180525121802 69 176 2.0 3.0 0.00 0.00 0.00 68 1014.3
20180525121302 69 173 2.0 3.0 0.00 0.00 0.00 68 1014.3
20180525120802 69 164 3.0 5.0 0.00 0.00 0.00 69 1014.3
20180525120303 68 177 3.0 6.0 0.00 0.00 0.00 69 1014.3
20180525115801 68 165 3.0 5.0 0.00 0.00 0.00 70 1014.3
20180525115302 68 181 3.0 6.0 0.00 0.00 0.00 70 1014.3
20180525114801 67 174 3.0 5.0 0.00 0.00 0.00 70 1014.3
20180525114302 67 167 2.0 3.0 0.00 0.00 0.00 70 1014.2
20180525113802 67 173 2.0 5.0 0.00 0.00 0.00 70 1014.3
20180525113302 67 165 3.0 3.0 0.00 0.00 0.00 70 1014.2
20180525112802 67 187 3.0 5.0 0.00 0.00 0.00 69 1014.4
20180525112304 67 173 3.0 5.0 0.00 0.00 0.00 69 1014.4
20180525111802 67 177 3.0 3.0 0.00 0.00 0.00 69 1014.4
20180525111301 67 191 2.0 5.0 0.00 0.00 0.00 69 1014.4
20180525110801 67 168 2.0 3.0 0.00 0.00 0.00 68 1014.4
20180525110301 67 167 3.0 5.0 0.00 0.00 0.00 68 1014.4
20180525105802 67 178 3.0 5.0 0.00 0.00 0.00 68 1014.4
20180525105301 67 178 3.0 5.0 0.00 0.00 0.00 68 1014.4
20180525104801 67 166 3.0 6.0 0.00 0.00 0.00 67 1014.4
20180525104301 67 167 3.0 6.0 0.00 0.00 0.00 67 1014.3
20180525103801 67 175 3.0 6.0 0.00 0.00 0.00 67 1014.4
20180525103302 67 178 3.0 5.0 0.00 0.00 0.00 67 1014.4
20180525102802 67 188 3.0 5.0 0.00 0.00 0.00 66 1014.5
20180525102305 67 180 2.0 5.0 0.00 0.00 0.00 66 1014.5
20180525101802 67 177 3.0 5.0 0.00 0.00 0.00 67 1014.5
20180525101301 67 179 3.0 5.0 0.00 0.00 0.00 67 1014.5
20180525100802 66 173 3.0 7.0 0.00 0.00 0.00 67 1014.5
20180525100302 66 182 3.0 6.0 0.00 0.00 0.00 67 1014.6
20180525095802 66 168 3.0 6.0 0.00 0.00 0.00 67 1014.6
20180525095302 66 175 3.0 5.0 0.00 0.00 0.00 67 1014.6
20180525094802 66 171 2.0 3.0 0.00 0.00 0.00 66 1014.7
20180525094302 67 173 3.0 3.0 0.00 0.00 0.00 66 1014.7
20180525093803 67 180 3.0 5.0 0.00 0.00 0.00 66 1014.8
20180525093301 67 173 3.0 5.0 0.00 0.00 0.00 65 1014.8
20180525092801 67 176 2.0 6.0 0.00 0.00 0.00 65 1014.9
20180525092301 67 172 3.0 5.0 0.00 0.00 0.00 64 1014.9
20180525091802 67 173 3.0 5.0 0.00 0.00 0.00 64 1014.9
20180525091302 67 174 3.0 5.0 0.00 0.00 0.00 65 1015.0
20180525090802 67 175 3.0 5.0 0.00 0.00 0.00 65 1015.0
20180525090302 67 172 3.0 6.0 0.00 0.00 0.00 64 1015.1
20180525085802 67 173 3.0 5.0 0.00 0.00 0.00 63 1015.2
20180525085302 67 177 3.0 5.0 0.00 0.00 0.00 63 1015.3
20180525084802 67 176 3.0 3.0 0.00 0.00 0.00 63 1015.4
20180525084302 67 173 3.0 5.0 0.00 0.00 0.00 62 1015.5
20180525083802 67 163 2.0 5.0 0.00 0.00 0.00 63 1015.5
20180525083302 67 174 3.0 5.0 0.00 0.00 0.00 62 1015.5
20180525082801 67 178 2.0 3.0 0.00 0.00 0.00 62 1015.5
20180525082305 67 178 3.0 3.0 0.00 0.00 0.00 61 1015.5
20180525081801 67 178 2.0 3.0 0.00 0.00 0.00 61 1015.6
20180525081301 67 183 2.0 3.0 0.00 0.00 0.00 61 1015.5
20180525080801 67 183 2.0 3.0 0.00 0.00 0.00 60 1015.5
20180525080301 67 183 2.0 3.0 0.00 0.00 0.00 61 1015.5
20180525075802 67 183 2.0 3.0 0.00 0.00 0.00 60 1015.5
20180525075302 67 183 2.0 3.0 0.00 0.00 0.00 60 1015.5
20180525074802 67 183 1.0 3.0 0.00 0.00 0.00 60 1015.5
20180525074302 67 183 1.0 2.0 0.00 0.00 0.00 59 1015.5
20180525073802 68 183 1.0 3.0 0.00 0.00 0.00 59 1015.6
20180525073302 68 183 2.0 3.0 0.00 0.00 0.00 59 1015.6
20180525072802 68 183 2.0 2.0 0.00 0.00 0.00 59 1015.6
20180525072305 68 183 1.0 2.0 0.00 0.00 0.00 58 1015.7
20180525071802 68 183 1.0 3.0 0.00 0.00 0.00 57 1015.7
20180525071302 68 183 1.0 2.0 0.00 0.00 0.00 58 1015.7
20180525070802 68 183 2.0 3.0 0.00 0.00 0.00 57 1015.8
20180525070302 69 178 2.0 3.0 0.00 0.00 0.00 57 1015.9
20180525065801 69 178 2.0 3.0 0.00 0.00 0.00 57 1015.9
20180525065302 69 171 2.0 3.0 0.00 0.00 0.00 56 1015.9
20180525064802 69 169 2.0 3.0 0.00 0.00 0.00 56 1016.0
20180525064302 69 173 2.0 5.0 0.00 0.00 0.00 55 1016.0
20180525063801 69 170 3.0 3.0 0.00 0.00 0.00 55 1016.1
20180525063302 69 173 2.0 5.0 0.00 0.00 0.00 55 1016.1
20180525062802 69 189 2.0 3.0 0.00 0.00 0.00 54 1016.2
20180525062302 69 189 1.0 3.0 0.00 0.00 0.00 54 1016.1
20180525061802 70 199 2.0 3.0 0.00 0.00 0.00 54 1016.2
20180525061302 70 199 2.0 2.0 0.00 0.00 0.00 53 1016.3
20180525060802 70 199 2.0 3.0 0.00 0.00 0.00 52 1016.3
20180525060302 70 199 2.0 3.0 0.00 0.00 0.00 52 1016.4
20180525055802 70 178 2.0 5.0 0.00 0.00 0.00 52 1016.4
20180525055302 71 173 2.0 3.0 0.00 0.00 0.00 52 1016.5
20180525054802 71 173 2.0 5.0 0.00 0.00 0.00 52 1016.5
20180525054302 71 183 2.0 3.0 0.00 0.00 0.00 51 1016.6
20180525053802 71 173 1.0 3.0 0.00 0.00 0.00 51 1016.6
20180525053302 71 178 2.0 3.0 0.00 0.00 0.00 51 1016.7
20180525052801 71 174 2.0 5.0 0.00 0.00 0.00 51 1016.7
20180525052301 71 164 2.0 3.0 0.00 0.00 0.00 51 1016.7
20180525051802 71 189 2.0 3.0 0.00 0.00 0.00 50 1016.7
20180525051302 71 189 2.0 3.0 0.00 0.00 0.00 50 1016.6
20180525050827 72 189 2.0 3.0 0.00 0.00 0.00 50 1016.7
20180525050302 72 171 2.0 5.0 0.00 0.00 0.00 50 1016.7
20180525045803 72 172 2.0 5.0 0.00 0.00 0.00 50 1016.7
20180525045302 72 173 2.0 6.0 0.00 0.00 0.00 49 1016.6
20180525044802 72 172 2.0 5.0 0.00 0.00 0.00 50 1016.6
20180525044302 72 183 3.0 5.0 0.00 0.00 0.00 49 1016.5
20180525043802 72 173 2.0 3.0 0.00 0.00 0.00 50 1016.5
20180525043302 72 173 3.0 5.0 0.00 0.00 0.00 50 1016.6
20180525042802 72 187 2.0 3.0 0.00 0.00 0.00 50 1016.6
20180525042302 73 194 2.0 3.0 0.00 0.00 0.00 49 1016.6
20180525041802 73 173 2.0 3.0 0.00 0.00 0.00 51 1016.6
20180525041302 73 160 2.0 3.0 0.00 0.00 0.00 51 1016.6
20180525040802 73 156 2.0 3.0 0.00 0.00 0.00 51 1016.6
20180525040302 73 156 2.0 3.0 0.00 0.00 0.00 51 1016.6
20180525035802 73 156 2.0 3.0 0.00 0.00 0.00 51 1016.7
20180525035302 73 142 2.0 3.0 0.00 0.00 0.00 51 1016.6
20180525034802 73 120 2.0 3.0 0.00 0.00 0.00 51 1016.7
20180525034302 74 120 2.0 3.0 0.00 0.00 0.00 51 1016.7
20180525033802 74 126 1.0 3.0 0.00 0.00 0.00 51 1016.8
20180525033302 74 125 1.0 3.0 0.00 0.00 0.00 50 1016.8
20180525032802 74 125 1.0 2.0 0.00 0.00 0.00 50 1016.8
20180525032302 74 126 1.0 3.0 0.00 0.00 0.00 50 1016.9
20180525031802 74 126 2.0 3.0 0.00 0.00 0.00 51 1016.9
20180525031302 75 126 1.0 3.0 0.00 0.00 0.00 50 1016.9
20180525030802 75 126 1.0 2.0 0.00 0.00 0.00 50 1016.8
20180525030302 75 126 1.0 3.0 0.00 0.00 0.00 50 1016.8
20180525025802 75 124 1.0 3.0 0.00 0.00 0.00 50 1016.9
20180525025302 75 124 1.0 3.0 0.00 0.00 0.00 50 1016.9
20180525024802 75 124 2.0 2.0 0.00 0.00 0.00 50 1016.9
20180525024302 75 124 1.0 2.0 0.00 0.00 0.00 51 1016.8
20180525023802 76 124 1.0 2.0 0.00 0.00 0.00 50 1016.7
20180525023302 76 124 2.0 2.0 0.00 0.00 0.00 51 1016.7
20180525022802 76 124 2.0 3.0 0.00 0.00 0.00 51 1016.7
20180525022302 76 196 1.0 2.0 0.00 0.00 0.00 51 1016.7
20180525021802 76 196 1.0 2.0 0.00 0.00 0.00 51 1016.7
20180525021302 76 196 1.0 2.0 0.00 0.00 0.00 51 1016.6
20180525020802 76 197 1.0 2.0 0.00 0.00 0.00 51 1016.6
20180525020303 77 197 1.0 2.0 0.00 0.00 0.00 50 1016.6